When you browse on this site, cookies collect data to enhance your experience and personalize the content and advertising you see.
Visit our Privacy Policy to learn more. By continuing to use the site, you agree to this use of cookies and data.

Hourly Weather Kriens

Today, 12 July, Sunday

Time Temperature Precipitation Wind Pressure Humidity
00:00 +13°C° 0 mm 1 mps 715 mmHg 93%
01:00 +12°C° 0 mm 1 mps 715 mmHg 94%
02:00 +12°C° 0 mm 1 mps 715 mmHg 93%
03:00 +11°C° 0 mm 1 mps 715 mmHg 93%
04:00 +11°C° 0 mm 1 mps 714 mmHg 92%
05:00 +12°C° 0 mm 1 mps 715 mmHg 90%
06:00 +13°C° 0 mm 1 mps 715 mmHg 88%
07:00 +14°C° 0 mm 1 mps 715 mmHg 85%
08:00 +16°C° 0 mm 1 mps 715 mmHg 77%
09:00 +18°C° 0 mm 2 mps 715 mmHg 69%
10:00 +20°C° 0 mm 2 mps 715 mmHg 60%
11:00 +21°C° 0 mm 3 mps 716 mmHg 58%
12:00 +22°C° 0 mm 3 mps 716 mmHg 55%
13:00 +24°C° 0 mm 3 mps 716 mmHg 53%
14:00 +24°C° 0 mm 3 mps 716 mmHg 54%
15:00 +24°C° 0 mm 3 mps 715 mmHg 56%
16:00 +24°C° 0 mm 3 mps 715 mmHg 57%
17:00 +22°C° 0 mm 3 mps 715 mmHg 63%
18:00 +21°C° 0 mm 2 mps 715 mmHg 70%
19:00 +20°C° 0 mm 2 mps 715 mmHg 76%
20:00 +18°C° 0 mm 2 mps 715 mmHg 81%
21:00 +16°C° 0 mm 1 mps 715 mmHg 86%
22:00 +14°C° 0 mm 1 mps 715 mmHg 92%
23:00 +14°C° 0 mm 1 mps 715 mmHg 92%

Tomorrow, 13 July, Monday

Time Temperature Precipitation Wind Pressure Humidity
00:00 +14°C° 0 mm 1 mps 714 mmHg 93%
01:00 +13°C° 0 mm 1 mps 714 mmHg 93%
02:00 +13°C° 0 mm 1 mps 714 mmHg 93%
03:00 +12°C° 0 mm 0 mps 714 mmHg 93%
04:00 +12°C° 0 mm 0 mps 714 mmHg 93%
05:00 +13°C° 0 mm 0 mps 714 mmHg 89%
06:00 +14°C° 0 mm 0 mps 714 mmHg 86%
07:00 +15°C° 0 mm 0 mps 714 mmHg 83%
08:00 +19°C° 0 mm 1 mps 714 mmHg 78%
09:00 +20°C° 0 mm 1 mps 714 mmHg 72%
10:00 +22°C° 0 mm 1 mps 714 mmHg 67%
11:00 +23°C° 0.3 mm 2 mps 714 mmHg 65%
12:00 +24°C° 0.3 mm 2 mps 714 mmHg 63%
13:00 +24°C° 0.3 mm 2 mps 714 mmHg 61%
14:00 +25°C° 0.4 mm 2 mps 714 mmHg 60%
15:00 +25°C° 0.4 mm 1 mps 713 mmHg 58%
16:00 +25°C° 0.4 mm 1 mps 713 mmHg 57%
17:00 +24°C° 0.1 mm 1 mps 713 mmHg 63%
18:00 +23°C° 0.1 mm 1 mps 713 mmHg 69%
19:00 +22°C° 0.1 mm 1 mps 713 mmHg 75%
20:00 +20°C° 0 mm 1 mps 712 mmHg 80%
21:00 +18°C° 0 mm 1 mps 712 mmHg 85%
22:00 +15°C° 0 mm 1 mps 712 mmHg 90%
23:00 +15°C° 0 mm 1 mps 712 mmHg 91%

Day after tomorrow, 14 July, Tuesday

Time Temperature Precipitation Wind Pressure Humidity
00:00 +14°C° 0 mm 1 mps 712 mmHg 91%
01:00 +14°C° 0 mm 1 mps 712 mmHg 91%
02:00 +12°C° 0 mm 0 mps 711 mmHg 91%
03:00 +12°C° 0 mm 0 mps 711 mmHg 91%
04:00 +12°C° 0 mm 0 mps 711 mmHg 91%
05:00 +13°C° 0 mm 0 mps 711 mmHg 88%
06:00 +14°C° 0 mm 0 mps 711 mmHg 85%
07:00 +16°C° 0 mm 0 mps 711 mmHg 82%
08:00 +17°C° 0 mm 0 mps 711 mmHg 76%
09:00 +21°C° 0 mm 1 mps 711 mmHg 70%
10:00 +22°C° 0 mm 1 mps 711 mmHg 64%
11:00 +23°C° 0.1 mm 1 mps 711 mmHg 62%
12:00 +23°C° 0.1 mm 2 mps 711 mmHg 59%
13:00 +24°C° 0.1 mm 2 mps 711 mmHg 56%
14:00 +24°C° 0.3 mm 2 mps 711 mmHg 58%
15:00 +24°C° 0.3 mm 1 mps 711 mmHg 60%
16:00 +24°C° 0.3 mm 1 mps 710 mmHg 61%
17:00 +23°C° 0.4 mm 1 mps 710 mmHg 68%
18:00 +22°C° 0.4 mm 1 mps 711 mmHg 74%
19:00 +21°C° 0.4 mm 1 mps 711 mmHg 81%
20:00 +19°C° 0 mm 1 mps 711 mmHg 83%
21:00 +18°C° 0 mm 1 mps 711 mmHg 86%
22:00 +15°C° 0 mm 1 mps 711 mmHg 89%
23:00 +15°C° 0 mm 1 mps 710 mmHg 89%

15 July, Wednesday

Time Temperature Precipitation Wind Pressure Humidity
00:00 +15°C° 0 mm 1 mps 710 mmHg 90%
01:00 +14°C° 0 mm 1 mps 710 mmHg 91%
02:00 +14°C° 0 mm 1 mps 710 mmHg 91%
03:00 +14°C° 0 mm 1 mps 710 mmHg 91%
04:00 +13°C° 0 mm 1 mps 710 mmHg 92%
05:00 +15°C° 0 mm 1 mps 710 mmHg 90%
06:00 +16°C° 0 mm 1 mps 710 mmHg 88%
07:00 +18°C° 0 mm 1 mps 710 mmHg 86%
08:00 +19°C° 0.3 mm 1 mps 710 mmHg 82%
09:00 +20°C° 0.3 mm 1 mps 710 mmHg 79%
10:00 +21°C° 0.3 mm 1 mps 710 mmHg 75%
11:00 +21°C° 0.5 mm 2 mps 710 mmHg 75%
12:00 +21°C° 0.5 mm 2 mps 710 mmHg 74%
13:00 +21°C° 0.5 mm 2 mps 710 mmHg 74%
14:00 +20°C° 0.8 mm 2 mps 710 mmHg 79%
15:00 +20°C° 0.8 mm 2 mps 710 mmHg 83%
16:00 +20°C° 0.8 mm 1 mps 710 mmHg 88%
17:00 +19°C° 0.5 mm 1 mps 710 mmHg 90%
18:00 +19°C° 0.5 mm 1 mps 710 mmHg 92%
19:00 +18°C° 0.5 mm 1 mps 711 mmHg 93%
20:00 +16°C° 0.4 mm 1 mps 711 mmHg 94%
21:00 +16°C° 0.4 mm 1 mps 711 mmHg 95%
22:00 +15°C° 0.4 mm 0 mps 711 mmHg 95%
23:00 +15°C° 0.2 mm 0 mps 711 mmHg 96%

16 July, Thursday

Time Temperature Precipitation Wind Pressure Humidity
00:00 +14°C° 0.2 mm 0 mps 711 mmHg 96%
01:00 +14°C° 0.2 mm 0 mps 711 mmHg 97%
02:00 +14°C° 0.2 mm 0 mps 711 mmHg 97%
03:00 +14°C° 0.2 mm 0 mps 711 mmHg 97%
04:00 +14°C° 0.2 mm 0 mps 711 mmHg 97%
05:00 +14°C° 0.2 mm 0 mps 711 mmHg 97%
06:00 +14°C° 0.2 mm 0 mps 711 mmHg 97%
07:00 +13°C° 0.2 mm 0 mps 711 mmHg 97%
08:00 +14°C° 0.1 mm 0 mps 712 mmHg 96%
09:00 +14°C° 0.1 mm 0 mps 712 mmHg 94%
10:00 +14°C° 0.1 mm 0 mps 712 mmHg 93%
11:00 +18°C° 0.2 mm 1 mps 712 mmHg 87%
12:00 +19°C° 0.2 mm 1 mps 712 mmHg 81%
13:00 +19°C° 0.2 mm 2 mps 712 mmHg 75%
14:00 +18°C° 0.3 mm 2 mps 712 mmHg 79%
15:00 +18°C° 0.3 mm 2 mps 712 mmHg 82%
16:00 +18°C° 0.3 mm 1 mps 712 mmHg 85%
17:00 +18°C° 0.2 mm 1 mps 712 mmHg 87%
18:00 +18°C° 0.2 mm 1 mps 712 mmHg 89%
19:00 +16°C° 0.2 mm 1 mps 712 mmHg 91%
20:00 +15°C° 0 mm 1 mps 712 mmHg 92%
21:00 +13°C° 0 mm 0 mps 712 mmHg 94%
22:00 +12°C° 0 mm 0 mps 712 mmHg 95%
23:00 +12°C° 0 mm 0 mps 712 mmHg 95%

17 July, Friday

Time Temperature Precipitation Wind Pressure Humidity
00:00 +12°C° 0 mm 0 mps 712 mmHg 95%
01:00 +12°C° 0 mm 0 mps 712 mmHg 95%
02:00 +12°C° 0 mm 0 mps 712 mmHg 95%
03:00 +12°C° 0 mm 0 mps 712 mmHg 96%
04:00 +11°C° 0 mm 0 mps 712 mmHg 96%
05:00 +12°C° 0 mm 0 mps 712 mmHg 95%
06:00 +13°C° 0 mm 0 mps 712 mmHg 93%
07:00 +14°C° 0 mm 0 mps 712 mmHg 92%
08:00 +16°C° 0 mm 1 mps 713 mmHg 85%
09:00 +19°C° 0 mm 1 mps 713 mmHg 79%
10:00 +20°C° 0 mm 1 mps 713 mmHg 72%
11:00 +20°C° 0 mm 2 mps 713 mmHg 66%
12:00 +21°C° 0 mm 2 mps 713 mmHg 61%
13:00 +23°C° 0 mm 2 mps 713 mmHg 55%
14:00 +23°C° 0 mm 2 mps 713 mmHg 54%
15:00 +24°C° 0 mm 2 mps 713 mmHg 54%
16:00 +24°C° 0 mm 2 mps 713 mmHg 53%
17:00 +23°C° 0 mm 2 mps 713 mmHg 60%
18:00 +21°C° 0 mm 2 mps 713 mmHg 67%
19:00 +21°C° 0 mm 1 mps 713 mmHg 74%
20:00 +19°C° 0 mm 1 mps 713 mmHg 79%
21:00 +16°C° 0 mm 1 mps 713 mmHg 85%
22:00 +14°C° 0 mm 1 mps 714 mmHg 90%
23:00 +14°C° 0 mm 1 mps 713 mmHg 90%
Show more